| time (UTC) | temp C | wind direction | speed KPH | gust KPH | rain 1hr cm | rain 24hr cm | rain mn cm | humidity % | barometer mb |
| 20260502194825 | 12 | 294 | 0.0 | 0.0 | 0.00 | 0.00 | 0.00 | 74 | 1000.0 |
| 20260502193327 | 12 | 294 | 0.0 | 0.0 | 0.00 | 0.03 | 0.00 | 73 | 999.7 |
| 20260502191824 | 12 | 294 | 0.0 | 0.0 | 0.00 | 0.03 | 0.00 | 71 | 1000.0 |
| 20260502190325 | 12 | 294 | 0.0 | 0.0 | 0.00 | 0.03 | 0.00 | 70 | 1000.0 |
| 20260502184825 | 13 | 294 | 0.0 | 0.0 | 0.00 | 0.03 | 0.00 | 69 | 1000.0 |
| 20260502183325 | 13 | 294 | 0.0 | 0.0 | 0.00 | 0.05 | 0.00 | 68 | 1000.3 |
| 20260502181824 | 13 | 308 | 3.2 | 3.2 | 0.00 | 0.08 | 0.00 | 68 | 1000.3 |
| 20260502180325 | 13 | 313 | 0.0 | 0.0 | 0.00 | 0.08 | 0.00 | 66 | 1000.3 |
| 20260502170326 | 14 | 302 | 0.0 | 1.6 | 0.00 | 0.08 | 0.00 | 64 | 1000.7 |
| 20260502163326 | 15 | 9 | 0.0 | 1.6 | 0.00 | 0.08 | 0.00 | 65 | 1001.0 |
| 20260502161825 | 15 | 303 | 3.2 | 3.2 | 0.00 | 0.08 | 0.00 | 61 | 1000.7 |
| 20260502160326 | 15 | 313 | 0.0 | 0.0 | 0.00 | 0.08 | 0.00 | 62 | 1000.7 |
| 20260502151826 | 15 | 312 | 0.0 | 1.6 | 0.00 | 0.08 | 0.00 | 63 | 1001.7 |
| 20260502150325 | 15 | 332 | 3.2 | 3.2 | 0.00 | 0.08 | 0.00 | 60 | 1001.7 |
| 20260502130327 | 13 | 292 | 1.6 | 3.2 | 0.00 | 0.08 | 0.00 | 72 | 1002.7 |
| 20260502123326 | 13 | 266 | 1.6 | 1.6 | 0.00 | 0.08 | 0.00 | 71 | 1003.0 |
| 20260502121826 | 13 | 327 | 1.6 | 1.6 | 0.00 | 0.08 | 0.00 | 73 | 1003.4 |
| 20260502120326 | 13 | 244 | 3.2 | 3.2 | 0.00 | 0.08 | 0.00 | 72 | 1003.4 |
| 20260502114827 | 13 | 287 | 1.6 | 1.6 | 0.00 | 0.08 | 0.00 | 75 | 1003.7 |
| 20260502113325 | 13 | 194 | 0.0 | 1.6 | 0.00 | 0.08 | 0.00 | 76 | 1003.4 |
| 20260502111825 | 12 | 312 | 0.0 | 1.6 | 0.00 | 0.08 | 0.00 | 77 | 1003.4 |
| 20260502110325 | 12 | 327 | 6.4 | 9.7 | 0.00 | 0.08 | 0.00 | 80 | 1003.4 |
| 20260502104826 | 12 | 226 | 3.2 | 4.8 | 0.00 | 0.08 | 0.00 | 79 | 1003.7 |
| 20260502103325 | 12 | 252 | 3.2 | 3.2 | 0.00 | 0.08 | 0.00 | 82 | 1003.7 |
| 20260502101826 | 11 | 218 | 1.6 | 3.2 | 0.00 | 0.08 | 0.00 | 83 | 1003.7 |
| 20260502100325 | 11 | 229 | 3.2 | 3.2 | 0.00 | 0.08 | 0.00 | 86 | 1003.7 |
| 20260502090325 | 11 | 79 | 0.0 | 0.0 | 0.00 | 0.08 | 0.00 | 90 | 1004.1 |
| 20260502070326 | 10 | 265 | 0.0 | 0.0 | 0.00 | 0.08 | 0.00 | 95 | 1003.7 |
| 20260502064826 | 10 | 231 | 0.0 | 0.0 | 0.00 | 0.08 | 0.00 | 95 | 1004.1 |
| 20260502063325 | 10 | 232 | 1.6 | 1.6 | 0.00 | 0.08 | 0.00 | 95 | 1003.7 |
| 20260502061825 | 10 | 323 | 0.0 | 0.0 | 0.00 | 0.08 | 0.00 | 95 | 1003.7 |
| 20260502060326 | 10 | 242 | 0.0 | 0.0 | 0.00 | 0.08 | 0.00 | 95 | 1003.7 |
| 20260502054825 | 10 | 287 | 0.0 | 1.6 | 0.00 | 0.08 | 0.00 | 96 | 1003.7 |
| 20260502053325 | 10 | 294 | 0.0 | 0.0 | 0.00 | 0.08 | 0.00 | 96 | 1003.7 |
| 20260502051825 | 9 | 224 | 3.2 | 3.2 | 0.00 | 0.08 | 0.00 | 96 | 1003.7 |
| 20260502050325 | 9 | 216 | 1.6 | 1.6 | 0.00 | 0.08 | 0.00 | 96 | 1003.7 |
| 20260502044825 | 9 | 219 | 3.2 | 3.2 | 0.00 | 0.08 | 0.00 | 96 | 1003.7 |
| 20260502043325 | 10 | 267 | 1.6 | 3.2 | 0.00 | 0.08 | 0.00 | 97 | 1003.7 |
| 20260502041825 | 10 | 170 | 3.2 | 3.2 | 0.00 | 0.08 | 0.00 | 97 | 1003.7 |
| 20260502040326 | 10 | 302 | 0.0 | 0.0 | 0.00 | 0.08 | 0.00 | 97 | 1003.7 |
| 20260502034825 | 10 | 255 | 1.6 | 3.2 | 0.00 | 0.08 | 0.00 | 97 | 1003.7 |
| 20260502033326 | 10 | 274 | 0.0 | 0.0 | 0.00 | 0.08 | 0.00 | 97 | 1004.1 |
| 20260502031825 | 10 | 304 | 0.0 | 0.0 | 0.00 | 0.08 | 0.00 | 97 | 1003.7 |
| 20260502030325 | 9 | 323 | 0.0 | 0.0 | 0.00 | 0.08 | 0.00 | 96 | 1004.1 |
| 20260502024826 | 9 | 323 | 0.0 | 0.0 | 0.00 | 0.08 | 0.00 | 96 | 1004.1 |
| 20260502023325 | 10 | 317 | 0.0 | 0.0 | 0.00 | 0.08 | 0.00 | 96 | 1004.4 |
| 20260502021825 | 9 | 307 | 1.6 | 1.6 | 0.00 | 0.08 | 0.00 | 96 | 1004.4 |
| 20260502020325 | 9 | 317 | 1.6 | 1.6 | 0.00 | 0.08 | 0.00 | 97 | 1004.7 |
| 20260502014825 | 10 | 321 | 0.0 | 0.0 | 0.00 | 0.08 | 0.00 | 97 | 1005.1 |
| 20260502013325 | 10 | 311 | 1.6 | 1.6 | 0.00 | 0.08 | 0.00 | 97 | 1005.1 |
| 20260502011826 | 10 | 296 | 3.2 | 3.2 | 0.00 | 0.08 | 0.00 | 97 | 1005.1 |
| 20260502010326 | 10 | 303 | 1.6 | 3.2 | 0.00 | 0.08 | 0.00 | 97 | 1005.1 |
| 20260502004825 | 10 | 252 | 0.0 | 0.0 | 0.00 | 0.08 | 0.00 | 97 | 1005.1 |
| 20260502003325 | 10 | 302 | 0.0 | 0.0 | 0.00 | 0.08 | 0.00 | 97 | 1005.4 |
| 20260502001825 | 10 | 292 | 0.0 | 0.0 | 0.00 | 0.08 | 0.00 | 97 | 1005.4 |
| 20260502000326 | 10 | 300 | 1.6 | 1.6 | 0.00 | 0.08 | 0.00 | 97 | 1005.4 |
| 20260501234826 | 10 | 289 | 3.2 | 6.4 | 0.00 | 0.08 | 0.00 | 97 | 1005.4 |
| 20260501233324 | 10 | 323 | 0.0 | 0.0 | 0.00 | 0.08 | 0.00 | 97 | 1005.4 |
| 20260501231826 | 10 | 335 | 0.0 | 0.0 | 0.00 | 0.08 | 0.00 | 96 | 1005.4 |
| 20260501230325 | 10 | 335 | 0.0 | 0.0 | 0.00 | 0.08 | 0.00 | 96 | 1005.8 |
| 20260501224825 | 10 | 335 | 0.0 | 0.0 | 0.00 | 0.08 | 0.05 | 96 | 1005.8 |
| 20260501223326 | 10 | 334 | 0.0 | 0.0 | 0.00 | 0.08 | 0.05 | 96 | 1005.4 |
| 20260501221826 | 10 | 335 | 0.0 | 0.0 | 0.00 | 0.08 | 0.05 | 96 | 1005.4 |
| 20260501220325 | 10 | 289 | 0.0 | 0.0 | 0.00 | 0.08 | 0.05 | 96 | 1005.4 |
| 20260501214825 | 10 | 306 | 0.0 | 1.6 | 0.00 | 0.08 | 0.05 | 95 | 1005.8 |
| 20260501213326 | 11 | 290 | 0.0 | 0.0 | 0.00 | 0.08 | 0.05 | 95 | 1005.8 |
| 20260501211826 | 11 | 280 | 0.0 | 0.0 | 0.00 | 0.08 | 0.05 | 95 | 1005.8 |
| 20260501210325 | 11 | 320 | 0.0 | 0.0 | 0.00 | 0.08 | 0.05 | 95 | 1005.8 |
| 20260501204825 | 11 | 318 | 1.6 | 1.6 | 0.00 | 0.08 | 0.05 | 95 | 1005.8 |
| 20260501203326 | 11 | 314 | 0.0 | 0.0 | 0.00 | 0.08 | 0.05 | 95 | 1006.1 |
| 20260501201825 | 11 | 307 | 0.0 | 0.0 | 0.00 | 0.08 | 0.05 | 94 | 1006.1 |
| 20260501200326 | 11 | 308 | 3.2 | 4.8 | 0.00 | 0.08 | 0.05 | 94 | 1006.1 |